Theta_e
317 316 317 318 320 320 325 328 329 333 338 333 334 346 350 350 352 350 350 351 345 348 348 345 337 332 331 330 331 335 335 334 333 332 331 331 335 337 337 336 334 334 335 333 323 318 322 326 331
318 315 319 314 319 323 325 325 328 328 336 335 347 350 351 352 353 353 351 353 347 347 347 344 336 332 331 331 332 334 333 333 332 330 329 330 331 331 331 332 333 334 330 323 318 319 323 329 331
314 318 315 315 316 322 325 325 329 328 325 333 336 340 347 353 353 351 351 351 348 348 347 344 336 333 332 331 332 334 333 333 331 330 331 334 336 336 334 334 333 328 321 319 316 318 321 326 330
314 313 311 316 318 319 323 322 322 322 328 331 341 346 345 347 350 351 353 350 346 347 347 344 337 333 333 332 332 334 332 332 332 330 331 332 333 334 334 333 329 322 319 318 317 318 321 323 326
314 309 314 316 317 318 320 320 320 320 330 330 337 346 347 350 350 353 352 349 346 348 348 345 339 334 336 333 332 334 334 332 331 330 330 330 330 330 330 326 324 320 319 318 316 316 318 322 325
311 309 315 316 317 320 319 319 319 319 326 343 345 342 343 352 352 351 346 345 345 346 348 346 342 336 336 338 334 333 335 334 331 330 330 329 328 328 327 325 322 319 319 318 317 317 316 316 317
312 311 315 316 318 318 320 318 318 319 318 327 335 344 341 349 351 345 343 344 344 345 346 346 344 340 337 339 340 336 334 336 335 332 331 330 329 329 327 326 323 320 319 318 318 318 318 318 318
311 310 313 314 317 318 318 315 315 316 318 325 332 337 340 339 350 348 348 348 346 346 345 345 345 345 341 340 341 341 338 335 336 336 334 333 332 331 329 327 324 321 320 319 318 318 318 319 318
311 310 312 313 314 316 314 314 315 316 321 322 323 330 330 340 350 349 348 351 349 348 347 346 346 346 345 344 343 343 343 341 336 336 337 336 335 334 331 329 326 323 320 320 319 319 319 319 319
310 309 312 313 315 316 315 315 315 318 318 321 323 320 332 347 348 350 351 351 351 349 348 347 347 346 346 345 345 345 345 345 343 339 338 338 339 337 335 332 330 327 324 322 321 320 319 319 318
310 311 313 314 315 315 314 315 316 316 318 319 321 319 317 326 342 350 350 351 350 350 348 347 347 346 345 345 344 345 346 346 346 345 341 338 339 340 339 336 332 328 325 322 321 320 320 319 318
311 311 312 314 314 315 315 315 316 316 317 318 317 318 317 316 321 335 347 351 352 351 348 346 346 344 344 343 343 343 344 344 345 346 345 342 339 340 342 341 337 332 328 324 322 321 320 319 319
310 311 311 312 312 312 313 313 314 315 315 316 315 315 315 315 315 328 337 341 350 352 351 346 344 343 343 346 343 342 341 344 343 343 345 345 343 341 342 343 342 339 334 329 324 322 322 321 320
310 310 311 311 311 311 313 313 312 315 315 315 315 315 314 312 313 315 323 334 336 348 352 351 346 343 342 344 342 341 339 341 339 340 342 345 346 344 343 344 344 343 339 336 330 326 327 327 324
311 312 311 312 312 312 311 313 314 315 315 314 314 312 313 313 314 314 316 324 335 342 348 351 350 346 341 341 342 340 339 339 340 339 339 342 345 346 346 345 345 344 343 340 338 335 334 335 333
314 311 313 312 313 313 313 314 315 314 314 313 313 313 312 312 314 316 317 316 329 338 344 348 349 346 341 340 340 342 343 343 342 341 340 340 342 342 342 342 342 343 344 341 340 339 337 337 338
310 313 313 314 313 314 314 313 313 313 313 313 313 312 312 312 313 316 317 315 318 327 338 345 348 344 341 342 343 345 346 346 346 345 344 343 343 342 340 339 340 342 342 340 339 340 338 339 341
314 313 313 314 314 314 313 312 312 313 312 312 312 312 312 312 312 315 318 318 320 322 335 343 348 347 346 346 346 346 351 352 352 348 346 345 344 342 342 341 341 342 341 341 341 341 340 340 342
314 313 313 313 313 314 312 312 313 312 312 309 310 311 312 312 313 315 317 318 328 328 338 343 348 347 347 346 344 337 344 347 344 352 351 349 348 348 346 343 341 342 342 341 341 342 342 342 342
313 313 313 312 312 311 313 313 312 314 314 310 310 311 311 312 313 313 315 316 326 332 336 341 344 345 346 343 342 339 338 340 349 349 342 339 342 346 347 347 345 343 342 343 343 341 341 340 340
314 313 313 313 315 314 314 313 313 314 314 313 314 312 312 312 311 311 312 316 323 331 337 340 343 347 342 335 341 348 349 344 339 334 332 331 331 332 332 337 344 345 342 342 342 339 338 340 341
314 314 316 315 314 313 313 313 312 313 313 313 312 311 310 310 311 311 311 313 321 326 334 339 341 335 328 325 328 331 327 327 330 329 329 330 329 327 327 330 333 339 343 342 340 339 329 332 340
314 315 315 315 313 313 313 311 310 312 313 312 314 313 313 315 314 311 311 316 320 323 328 332 330 328 328 330 331 330 329 330 329 329 329 328 328 329 329 330 333 335 338 339 339 338 334 338 340
317 315 311 310 310 313 313 312 311 313 314 319 319 317 316 315 314 314 317 321 322 325 327 329 330 331 330 329 327 326 325 325 326 329 329 327 327 327 329 331 332 334 333 333 334 334 335 336 334
314 311 313 314 313 314 317 317 315 317 323 322 319 316 314 314 315 316 317 317 320 321 323 324 325 323 323 323 322 322 321 321 322 324 324 322 322 321 322 324 329 330 331 333 332 334 335 334 332
319 313 313 317 316 316 319 319 319 322 321 318 317 315 314 313 311 311 312 315 318 320 320 321 321 321 321 321 320 320 320 320 320 321 321 320 319 318 317 317 319 324 327 328 330 332 334 335 335
321 321 316 319 319 322 319 318 318 322 322 322 321 318 317 314 312 312 312 313 316 318 319 318 319 319 320 320 320 319 319 319 319 319 318 318 318 317 317 317 316 316 319 323 326 328 329 332 334
318 319 322 319 324 323 320 321 319 325 323 322 321 321 319 318 317 312 310 313 313 317 317 316 316 316 316 317 318 319 319 319 318 318 317 317 318 318 317 317 316 314 315 318 319 321 326 329 332
316 316 317 317 320 321 324 321 317 321 321 320 318 318 319 320 322 319 315 314 315 313 313 312 312 313 314 316 318 319 319 319 318 318 318 318 318 318 317 316 314 313 314 315 316 317 319 322 326
315 319 317 315 321 326 329 325 319 318 316 315 314 314 314 314 315 316 315 313 312 311 311 311 311 312 312 313 314 317 317 317 317 318 318 318 317 317 316 314 313 313 312 312 312 314 317 319 323
Wind_Speed
15 17 12 4 3 5 3 6 3 5 7 5 5 3 4 2 2 3 1 13 26 38 32 29 28 26 25 25 25 25 24 23 22 22 23 24 24 23 23 21 19 16 14 12 11 12 13 13 13
16 14 4 3 4 2 5 5 7 6 5 6 3 3 5 2 3 6 12 12 34 38 34 30 28 26 25 25 24 23 23 22 21 22 24 24 23 22 21 20 18 15 14 13 12 13 14 14 12
10 3 3 4 3 5 5 3 6 7 15 5 5 3 2 1 3 10 7 24 38 36 33 31 29 26 25 25 24 23 22 21 21 22 23 22 21 20 19 17 15 14 14 14 14 14 14 14 13
4 5 4 4 6 6 4 7 6 10 9 2 4 5 4 2 9 11 22 31 38 36 33 31 29 27 25 25 24 23 22 21 21 21 21 21 20 18 17 15 14 13 13 13 12 12 12 11 10
3 3 3 2 6 5 5 6 6 8 7 2 7 3 2 4 10 21 29 35 37 35 33 31 29 28 26 25 24 23 22 22 21 21 20 20 18 17 16 14 14 13 12 11 11 10 9 9 9
3 3 3 4 6 4 6 7 4 4 5 2 5 6 1 8 24 28 31 36 34 35 32 30 28 27 26 24 24 24 23 22 22 21 20 19 18 17 16 15 14 13 13 11 10 9 9 9 9
5 4 5 4 4 5 4 5 6 5 7 4 8 5 2 7 14 27 32 33 33 33 32 30 28 26 25 24 24 24 24 23 22 21 20 19 18 17 16 15 14 13 12 12 11 11 10 10 9
4 4 4 5 5 7 4 5 4 4 7 2 5 6 6 5 18 21 21 26 31 32 33 34 33 30 28 26 24 23 23 23 22 20 19 18 17 16 16 16 15 14 13 13 12 11 11 10 10
4 2 4 6 6 4 5 8 6 5 0 4 5 4 7 22 23 20 18 19 25 29 33 34 34 33 30 28 26 24 23 23 23 22 21 19 19 18 17 17 16 15 15 14 14 13 13 12 12
4 5 8 5 3 5 5 2 4 6 8 6 4 9 11 23 27 20 17 17 20 26 34 36 36 35 33 31 29 28 26 25 25 25 24 22 21 19 18 18 17 16 16 16 16 15 14 14 14
5 5 4 6 7 4 4 7 2 6 3 3 1 2 7 7 8 10 16 22 33 25 31 36 36 35 35 35 32 30 27 27 27 27 26 25 23 21 21 20 20 20 20 20 19 18 18 17 17
2 5 5 4 6 4 5 6 5 3 6 5 5 1 2 11 7 13 17 23 21 25 31 35 36 36 35 34 33 32 29 30 29 30 29 28 27 26 24 23 22 22 22 23 22 21 21 21 20
3 4 6 8 9 6 5 8 7 7 11 7 6 3 6 6 8 19 23 25 31 28 29 34 37 37 36 33 33 32 31 31 28 30 32 31 31 30 28 27 25 25 24 26 25 24 24 23 23
6 7 9 5 9 5 5 11 8 8 11 8 6 8 7 9 10 8 16 16 24 32 35 33 36 38 38 35 33 33 31 31 28 29 30 32 33 33 31 30 29 28 27 27 27 27 26 27 26
4 3 5 5 7 7 7 7 7 12 7 8 8 9 9 8 11 13 17 19 23 27 30 35 38 37 37 36 33 31 30 30 31 29 28 30 33 33 31 31 33 33 31 29 27 28 27 28 29
2 4 1 5 2 6 9 7 7 10 7 11 11 9 8 9 10 20 17 16 20 24 26 31 35 36 38 35 32 29 27 28 29 28 28 28 31 30 30 32 35 34 32 31 31 30 30 30 29
5 2 3 6 3 1 3 5 9 6 8 11 11 10 8 9 8 20 21 15 18 27 29 29 30 36 36 31 28 24 24 27 27 29 29 27 27 27 28 31 34 33 31 32 33 31 30 31 30
5 2 2 5 3 3 7 9 9 8 7 13 11 8 8 9 13 23 24 20 18 27 30 30 33 34 34 31 25 20 19 20 20 23 24 25 27 25 29 31 33 31 29 30 32 32 33 34 32
2 3 5 5 3 2 8 6 8 9 5 9 8 8 10 10 13 22 22 12 17 24 31 31 31 31 30 31 28 24 24 19 16 16 16 13 17 19 24 28 30 31 30 34 30 32 34 35 31
4 3 6 9 6 6 7 8 9 6 5 6 8 8 10 7 8 9 13 15 25 30 34 34 34 34 32 29 24 22 27 22 18 10 7 9 9 12 17 22 26 26 28 33 32 29 29 27 26
5 4 6 8 6 2 3 6 5 5 5 7 4 5 6 8 9 10 9 16 22 29 34 37 38 36 30 22 20 19 15 9 6 1 3 6 8 9 11 13 18 25 27 31 16 18 21 24 30
7 8 14 8 2 4 2 5 5 5 8 5 9 9 9 9 9 11 9 12 26 28 30 33 31 26 23 19 16 14 7 5 6 4 4 7 9 10 12 12 14 16 22 28 28 38 38 40 32
8 4 8 7 5 3 2 2 7 4 7 7 9 10 10 10 9 9 9 14 18 22 23 23 25 22 18 14 11 10 10 8 6 4 4 6 7 9 11 12 13 13 16 21 25 31 34 27 30
3 3 8 5 3 0 4 4 4 3 3 6 6 8 9 4 7 9 12 12 16 23 23 23 22 19 16 14 12 10 9 7 5 3 2 5 7 9 10 10 12 15 17 18 19 25 32 34 31
6 6 2 3 2 5 1 1 8 3 4 3 4 9 9 8 9 11 11 9 15 16 20 20 18 16 13 9 7 5 4 5 5 5 4 2 3 6 10 13 12 14 17 18 21 23 24 29 25
2 6 5 6 4 3 4 4 3 4 5 6 11 7 9 10 8 8 7 10 12 12 12 11 10 11 9 8 7 5 6 7 5 6 6 4 2 4 5 7 10 12 13 17 20 24 27 28 28
2 3 3 5 2 3 4 6 1 5 8 8 8 9 9 9 9 9 8 6 8 6 4 3 3 4 7 9 11 13 15 16 15 11 9 8 7 7 8 8 9 10 13 15 18 21 25 28 25
4 5 3 3 4 4 4 4 5 2 5 7 8 6 7 7 6 7 7 9 6 5 5 4 6 10 12 15 19 21 19 17 15 14 14 14 11 11 11 13 12 11 12 13 17 20 21 25 28
5 3 5 3 3 5 1 5 3 5 2 5 6 7 8 8 10 4 4 1 4 6 9 13 14 13 14 16 18 20 20 19 18 20 21 21 19 19 17 16 14 12 12 14 15 20 22 24 27
2 3 3 4 4 1 1 5 4 5 4 3 8 8 7 8 9 6 3 3 5 10 10 14 12 12 11 11 12 15 18 18 20 22 24 23 24 23 22 18 16 14 13 15 18 19 21 26 29
Wind_Direction
324 332 332 45 37 59 281 260 268 293 319 312 288 175 161 23 152 208 234 172 165 162 164 162 161 159 155 153 151 149 147 145 143 146 148 149 151 152 154 154 153 154 155 157 157 154 151 151 150
320 336 22 86 90 28 274 250 251 259 260 303 17 49 25 60 91 119 120 168 166 163 164 163 162 161 157 156 155 153 153 152 150 151 151 151 151 154 156 157 158 160 163 163 161 161 162 161 162
321 8 77 95 123 188 233 259 279 286 296 235 161 100 67 112 72 151 171 167 166 165 165 164 164 164 161 161 159 159 160 160 159 158 158 158 158 160 161 164 167 169 170 168 169 170 172 172 172
326 21 36 99 228 257 235 290 303 321 319 256 89 71 75 109 158 180 164 169 168 167 168 167 167 168 165 166 166 165 166 167 167 166 167 168 168 170 172 175 176 177 176 176 177 177 178 180 182
35 65 75 145 255 259 275 291 318 301 282 306 132 118 38 10 162 155 162 169 170 168 171 170 171 172 171 171 172 172 173 174 175 175 176 176 177 180 182 185 186 186 185 187 187 187 188 191 194
43 95 78 232 253 255 289 272 290 299 328 304 77 102 252 154 145 155 164 172 174 170 173 172 174 177 177 177 178 181 181 181 183 184 184 185 186 188 191 195 195 194 194 195 197 200 203 208 212
130 102 204 200 268 283 241 320 306 288 279 247 147 107 114 196 168 163 168 173 175 173 173 176 179 183 185 185 187 188 190 190 191 192 193 193 194 196 200 204 207 207 209 210 210 211 214 218 226
130 111 174 217 207 268 189 329 268 283 293 87 143 169 194 197 165 162 164 172 176 178 178 181 183 187 190 192 195 196 198 200 200 201 202 203 205 207 209 212 215 217 218 220 224 225 230 236 240
109 94 228 209 180 244 332 18 323 292 303 340 325 142 165 152 154 146 153 170 182 183 187 188 187 190 192 195 198 203 206 208 208 209 210 210 212 215 218 224 226 228 231 235 234 235 238 240 249
157 175 214 202 213 270 314 358 308 338 353 352 31 48 105 147 156 155 166 177 187 192 194 194 194 194 194 197 201 204 207 210 213 214 215 216 221 223 227 230 235 239 243 245 252 252 252 253 255
184 217 208 256 268 285 261 299 105 310 316 251 54 46 119 120 150 164 183 186 194 195 199 199 199 199 198 199 200 206 208 213 216 218 218 220 224 228 231 235 235 237 241 245 245 250 253 258 260
203 237 224 256 259 275 264 293 308 224 252 248 192 168 339 139 179 187 188 205 204 203 204 205 204 204 203 204 203 206 207 212 213 220 220 222 225 228 232 237 243 244 247 248 251 254 257 258 261
224 251 256 253 265 247 284 262 252 265 252 225 272 181 198 214 179 176 191 208 214 211 214 212 207 208 208 208 208 211 212 214 216 219 221 223 226 230 234 237 242 249 251 254 254 254 259 261 265
216 233 253 289 272 252 210 264 145 258 243 254 226 256 236 217 230 164 186 194 196 212 219 217 213 211 210 211 215 217 219 221 224 227 226 226 231 233 236 241 244 247 250 255 257 260 262 267 269
229 247 291 244 257 240 177 276 207 238 234 238 252 243 254 242 246 236 210 200 198 205 215 216 214 213 210 214 220 225 225 229 231 234 234 236 237 240 243 248 251 252 253 256 258 260 263 267 268
20 38 333 280 231 265 155 250 262 255 261 263 256 251 242 249 232 242 246 208 206 210 212 217 210 208 209 212 220 227 229 230 235 240 242 244 247 246 250 254 256 256 256 257 256 258 263 266 269
4 199 198 300 222 259 216 285 263 291 251 250 259 258 257 269 259 248 242 221 211 213 213 211 208 208 208 210 214 223 235 239 244 247 249 254 254 253 253 256 259 258 257 257 254 256 257 261 267
206 205 254 217 273 355 312 276 284 278 279 250 247 259 270 267 256 246 241 239 221 210 209 208 203 207 211 212 216 223 229 239 247 250 253 255 259 263 260 259 265 264 261 261 256 254 255 256 262
184 189 251 262 247 277 258 248 279 292 335 290 251 246 257 258 261 247 234 215 198 199 204 204 202 207 202 208 216 228 228 231 247 249 258 276 277 284 273 265 262 264 268 262 264 259 255 254 256
217 251 270 290 262 157 273 258 259 277 283 250 238 253 246 245 257 261 232 210 200 195 197 200 205 206 206 210 222 218 224 233 235 247 280 289 299 290 279 276 270 267 265 267 259 252 260 264 256
246 200 251 223 304 242 301 309 295 295 306 335 311 259 265 251 272 285 262 214 202 197 199 200 202 203 203 208 212 204 193 195 180 176 351 339 332 329 328 314 285 275 260 253 250 288 295 284 281
260 211 232 235 178 245 88 276 298 299 316 307 305 305 282 261 248 249 253 197 207 205 200 202 198 192 195 193 190 190 172 128 108 70 10 358 353 346 340 329 310 296 281 265 252 237 246 250 258
230 303 206 206 185 127 318 79 268 285 307 315 309 309 308 305 290 278 228 211 195 183 180 182 188 188 196 189 180 146 116 101 86 59 357 352 1 0 353 342 329 321 301 284 274 255 239 244 248
294 88 36 49 87 208 230 156 272 261 262 300 322 353 339 20 52 48 49 96 130 154 153 157 154 144 143 145 143 137 132 141 149 161 262 316 328 339 349 339 331 327 327 312 292 278 261 255 254
69 58 344 326 337 220 196 79 242 320 329 276 22 4 360 344 70 80 76 69 90 105 118 129 137 143 153 159 163 166 179 188 182 187 185 251 336 352 346 346 340 325 320 318 314 305 291 276 256
100 145 161 205 208 257 292 237 240 55 6 41 63 40 27 20 14 38 71 106 121 126 130 140 156 165 181 198 212 233 269 274 259 208 196 201 271 326 338 340 331 331 325 309 312 306 299 292 276
176 78 173 104 30 55 263 299 25 42 43 45 42 39 28 16 10 27 19 77 131 140 152 179 209 246 248 257 262 263 264 260 254 245 247 255 264 288 299 306 318 328 330 323 320 311 306 300 277
91 161 74 14 174 233 287 271 236 61 29 31 16 27 357 343 0 31 21 360 8 128 147 207 242 253 258 253 254 253 248 244 245 248 254 257 263 272 270 284 298 308 315 320 319 314 312 307 296
357 16 51 113 137 178 214 251 250 124 82 15 338 340 327 330 303 334 287 220 305 331 336 322 308 288 290 289 274 254 251 252 251 252 255 257 253 254 254 264 275 286 300 305 310 315 308 303 298
162 135 112 126 238 212 166 263 173 159 244 303 315 288 276 277 262 282 337 264 97 84 57 42 23 18 5 339 312 290 283 279 275 264 258 254 250 249 251 251 253 266 286 296 300 303 311 306 297